Date,TemperatureHighF,TemperatureAvgF,TemperatureLowF,DewpointHighF,DewpointAvgF,DewpointLowF,HumidityHigh,HumidityAvg,HumidityLow,PressureMaxIn,PressureMinIn,WindSpeedMaxMPH,WindSpeedAvgMPH,GustSpeedMaxMPH,PrecipitationSumIn
2013-2-1,67.4,52.5,41.6,49.0,44.1,41.0,98,76,45,30.21,30.13,5,1,8,0.01
2013-2-2,59.6,47.8,40.6,51.0,44.5,40.0,99,89,70,30.29,30.20,5,1,8,0.00
2013-2-3,60.5,49.1,40.9,51.0,46.0,40.0,100,90,66,30.25,30.14,5,1,7,0.00
2013-2-4,58.9,47.4,41.0,52.0,45.5,40.0,100,93,73,30.16,30.07,6,1,8,0.01
2013-2-5,59.9,47.2,41.8,50.0,44.3,39.0,100,90,68,30.17,30.07,7,1,9,0.02
2013-2-6,60.1,46.1,36.7,46.0,39.7,36.0,96,80,52,30.21,30.12,6,1,9,0.00
2013-2-7,51.8,43.9,34.9,45.0,39.8,34.0,100,87,54,30.17,30.00,6,1,13,0.27
2013-2-8,58.2,42.8,32.1,44.0,35.8,32.0,100,79,43,30.04,29.96,3,0,10,0.00
2013-2-9,57.0,43.1,30.5,36.0,31.4,25.0,95,67,35,30.11,30.02,6,1,9,0.00
2013-2-10,63.7,46.4,35.3,40.0,35.6,32.0,91,70,37,30.12,30.03,5,1,13,0.00
2013-2-11,65.5,50.2,39.6,40.0,35.7,29.0,85,60,34,30.23,30.11,8,1,10,0.00
2013-2-12,62.5,47.5,37.2,47.0,40.0,36.0,96,77,49,30.37,30.23,6,1,7,0.00
2013-2-13,65.7,49.5,38.1,48.0,41.9,36.0,94,77,52,30.36,30.22,4,1,7,0.00
2013-2-14,71.0,55.1,44.7,52.0,45.6,41.0,95,73,42,30.26,30.17,5,1,8,0.00
2013-2-15,72.5,55.7,43.8,46.0,42.3,38.0,85,64,30,30.28,30.21,5,1,8,0.00
2013-2-16,69.6,54.9,45.4,51.0,44.6,39.0,86,70,44,30.25,30.04,5,1,8,0.00
2013-2-17,63.2,50.2,40.9,47.0,39.8,36.0,88,69,46,30.04,29.97,6,1,8,0.00
2013-2-18,52.2,43.0,36.1,45.0,39.5,35.0,99,88,73,30.01,29.92,6,1,9,0.00
2013-2-19,49.6,40.8,36.0,43.0,36.5,32.0,99,85,59,29.96,29.75,5,1,12,0.20
2013-2-20,58.1,43.9,31.4,41.0,34.5,30.0,94,72,44,30.07,29.86,10,1,13,0.00
2013-2-21,64.2,48.5,37.6,39.0,35.0,29.0,86,63,27,30.17,30.06,7,1,11,0.00
2013-2-22,64.8,50.9,38.6,45.0,38.7,33.0,83,65,42,30.25,30.16,6,1,11,0.00
2013-2-23,58.8,47.4,38.9,44.0,35.8,31.0,94,67,39,30.27,30.16,6,1,13,0.00
2013-2-24,66.0,49.1,37.3,39.0,34.4,29.0,82,60,28,30.27,30.17,6,1,9,0.00
2013-2-25,66.4,51.1,39.6,43.0,33.1,18.0,84,55,16,30.27,30.17,5,1,16,0.00
2013-2-26,68.6,52.2,36.7,42.0,31.9,23.0,71,48,25,30.23,30.16,5,1,9,0.00
2013-2-27,71.0,54.4,40.9,48.0,36.0,23.0,87,51,34,30.37,30.22,3,1,8,0.00
2013-2-28,71.1,57.2,47.8,57.0,50.3,46.0,96,79,53,30.44,30.37,4,0,10,0.00